Location: Poprad
(49.0500°N, 20.3000°E)
Time: 19:37:55
(UTC+02:00)

ITUPSAT 1 - Pass Details

Date: 30 April 2024
Orbit: 694 x 707 km, 98.5° (Epoch: 20 May)

Event Time Altitude Azimuth Distance (km) Brightness Sun altitude
Rises 22:10:40 0° 21° (NNE) 3,084 ? -18.2°
Reaches altitude 10° 22:13:05 10° 30° (NNE) 2,162 ? -18.5°
Maximum altitude 22:17:27 37° 97° (E) 1,085 ? -18.9°
Enters shadow 22:18:06 35° 115° (ESE) 1,117 ? -18.9°
